1509444000.57,12866,7.06,72926.5,-10.83,-13.69,-13.47,0,*6D
1509444001.85,12867,7.06,72932.0,-10.83,-13.37,-13.19,0,*6C
1509444003.14,12868,7.06,72946.3,-10.79,-13.01,-12.57,0,*68
1509444004.38,12869,7.06,72946.8,-10.79,-13.19,-12.89,0,*63
1509444005.68,12870,7.06,72958.0,-10.79,-13.01,-12.75,0,*61
1509444006.97,12871,7.06,72938.3,-10.75,-12.53,-12.15,0,*6C
1509444008.24,12872,7.06,72934.0,-10.75,-12.29,-12.15,0,*62
1509444009.49,12873,7.06,72932.5,-10.73,-12.53,-12.29,0,*67
1509444010.71,12874,7.06,72928.0,-10.73,-12.43,-12.25,0,*6D
1509444011.95,12875,7.06,72928.8,-10.71,-12.39,-12.21,0,*67
1509444013.19,12876,7.06,72926.3,-10.71,-13.55,-13.51,0,*69
1509444014.42,12877,7.06,72918.5,-10.69,-13.43,-13.37,0,*66
1509444015.67,12878,7.06,72902.5,-10.69,-12.97,-12.79,0,*6A
1509444016.93,12879,7.06,72888.3,-10.69,-12.83,-12.65,0,*63
1509444018.19,12880,7.06,72892.5,-10.69,-12.65,-12.53,0,*68
1509444019.49,12881,7.06,72898.3,-10.67,-12.75,-12.53,0,*66
1509444020.78,12882,7.06,72896.0,-10.67,-13.01,-13.01,0,*61
1509444022.05,12883,7.06,72912.3,-10.65,-13.37,-13.29,0,*6D
1509444023.29,12884,7.06,72924.8,-10.69,-13.51,-13.33,0,*6D
1509444024.53,12885,7.06,72908.5,-10.69,-13.43,-13.33,0,*6F
1509444025.83,12886,7.06,72920.5,-10.67,-13.37,-13.29,0,*6A
1509444027.07,12887,7.06,72908.5,-10.67,-13.73,-13.51,0,*64
1509444028.31,12888,7.06,72892.8,-10.67,-13.65,-13.51,0,*6C
1509444029.6,12889,7.06,72880.5,-10.67,-14.01,-13.87,0,*63
1509444030.84,12890,7.06,72896.3,-10.71,-14.37,-14.23,0,*60
1509444032.08,12891,7.06,72916.8,-10.71,-14.23,-14.11,0,*65
1509444033.32,12892,7.06,72916.5,-10.71,-14.37,-14.19,0,*6B
1509444034.58,12893,7.06,72898.0,-10.73,-14.15,-14.01,0,*61
1509444035.8,12894,7.06,72906.0,-10.73,-14.33,-14.19,0,*6B
1509444037.03,12895,7.06,72904.3,-10.73,-14.15,-14.15,0,*62
1509444038.25,12896,7.06,72912.5,-10.73,-14.29,-14.23,0,*6B
1509444039.5,12897,7.06,72940.5,-10.75,-14.23,-14.15,0,*63
1509444040.74,12898,7.06,72918.3,-10.75,-14.15,-14.11,0,*6D
1509444041.98,12899,7.06,72924.3,-10.77,-14.61,-14.47,0,*6E
1509444043.25,12900,7.06,72930.0,-10.77,-14.05,-13.87,0,*66
1509444044.49,12901,7.06,72926.0,-10.77,-14.19,-14.05,0,*67
1509444045.73,12902,7.06,72922.0,-10.79,-14.29,-14.15,0,*68
1509444046.95,12903,7.06,72930.5,-10.81,-14.19,-14.11,0,*69
1509444048.19,12904,7.06,72938.8,-10.81,-13.97,-13.93,0,*62
1509444049.46,12905,7.06,72936.0,-10.81,-13.97,-13.79,0,*67
1509444050.69,12906,7.06,72918.5,-10.79,-13.93,-13.73,0,*6D
1509444051.93,12907,7.06,72922.3,-10.81,-13.47,-13.37,0,*62
1509444053.17,12908,7.06,72928.5,-10.81,-13.93,-13.83,0,*6B
1509444054.43,12909,7.06,72928.5,-10.79,-14.05,-13.93,0,*64
1509444055.65,12910,7.06,72918.5,-10.81,-14.23,-14.11,0,*62
1509444056.89,12911,7.06,72952.0,-10.81,-13.83,-13.69,0,*66
1509444058.15,12912,7.06,72944.3,-10.83,-13.93,-13.79,0,*67
1509444059.41,12913,7.06,72948.3,-10.83,-13.83,-13.69,0,*66
1509444060.65,12914,7.06,72950.8,-10.83,-13.93,-13.69,0,*60
1509444061.91,12915,7.06,72916.5,-10.83,-14.33,-14.05,0,*61
1509444063.16,12916,7.06,72902.0,-10.87,-14.23,-14.11,0,*62
1509444064.39,12917,7.06,72896.0,-10.83,-13.65,-13.47,0,*66
1509444065.63,12918,7.06,72898.8,-10.83,-13.65,-13.55,0,*6A
1509444066.88,12919,7.06,72902.3,-10.83,-13.93,-13.79,0,*6C
1509444068.12,12920,7.06,72920.3,-10.83,-13.69,-13.47,0,*6E
1509444069.36,12921,7.06,72926.5,-10.83,-13.47,-13.23,0,*61
1509444070.63,12922,7.06,72924.5,-10.83,-13.51,-13.37,0,*60
1509444071.9,12923,7.06,72926.3,-10.83,-13.51,-13.37,0,*61
1509444073.17,12924,7.06,72944.3,-10.87,-13.51,-13.37,0,*62
1509444074.4,12925,7.06,72952.8,-10.83,-13.55,-13.47,0,*64
1509444075.67,12926,7.06,72962.8,-10.83,-13.37,-13.23,0,*61
1509444076.91,12927,7.06,72956.8,-10.83,-13.11,-13.11,0,*65
1509444078.16,12928,7.06,72948.0,-10.83,-13.11,-13.19,0,*62
1509444079.38,12929,7.06,72956.5,-10.81,-13.23,-13.23,0,*69
1509444080.65,12930,7.06,72942.8,-10.81,-14.01,-13.97,0,*69
1509444081.92,12931,7.13,72932.0,-10.83,-13.97,-13.69,0,*63
1509444083.18,12932,7.06,72910.5,-10.83,-13.47,-13.33,0,*62
1509444084.45,12933,7.06,72912.5,-10.83,-13.33,-13.11,0,*60
1509444085.72,12934,7.13,72946.8,-10.83,-13.37,-13.11,0,*63
1509444086.95,12935,7.06,72948.5,-10.83,-13.47,-13.47,0,*66
1509444088.19,12936,7.06,72950.8,-10.81,-13.79,-13.55,0,*69
1509444089.44,12937,7.06,72950.5,-10.81,-14.15,-13.87,0,*6A
1509444090.66,12938,7.06,72922.5,-10.81,-14.37,-14.23,0,*6C
1509444091.9,12939,7.06,72918.8,-10.81,-14.23,-14.05,0,*6C
1509444093.15,12940,7.06,72920.8,-10.87,-14.29,-14.15,0,*6F
1509444094.42,12941,7.06,72938.3,-10.87,-13.83,-13.55,0,*6A
1509444095.72,12942,7.06,72938.0,-10.83,-14.51,-14.51,0,*66
1509444097.0,12943,7.06,72942.3,-10.87,-14.97,-14.97,0,*63
1509444098.24,12944,7.06,72934.3,-10.83,-14.33,-14.19,0,*68
1509444099.49,12945,7.06,72940.8,-10.87,-13.69,-13.51,0,*6E
1509444100.75,12946,7.06,72928.8,-10.87,-13.87,-13.69,0,*66
1509444101.99,12947,7.06,72924.3,-10.87,-13.69,-13.51,0,*6C
1509444103.23,12948,7.13,72930.0,-10.87,-13.43,-13.23,0,*6E
1509444104.5,12949,7.06,72928.8,-10.83,-13.37,-13.11,0,*69
1509444105.73,12950,7.06,72926.3,-10.83,-13.47,-13.23,0,*67
1509444106.97,12951,7.06,72924.5,-10.83,-13.47,-13.23,0,*66
1509444108.19,12952,7.06,72930.8,-10.81,-14.11,-13.93,0,*68
1509444109.43,12953,7.13,72926.5,-10.83,-14.23,-14.19,0,*6F
1509444110.67,12954,7.06,72912.8,-10.83,-13.65,-13.47,0,*61
1509444111.96,12955,7.06,72930.0,-10.83,-13.37,-13.33,0,*64
1509444113.22,12956,7.06,72946.5,-10.83,-13.47,-13.33,0,*60
1509444114.46,12957,7.06,72938.5,-10.83,-13.69,-13.55,0,*6D
1509444115.73,12958,7.13,72946.0,-10.83,-13.55,-13.37,0,*69
1509444116.99,12959,7.06,72944.8,-10.87,-13.55,-13.37,0,*6C
1509444118.23,12960,7.06,72954.0,-10.87,-13.15,-12.97,0,*69
1509444119.5,12961,7.06,72954.3,-10.83,-13.79,-13.55,0,*69
1509444120.74,12962,7.06,72952.3,-10.83,-13.69,-13.51,0,*6F
1509444122.01,12963,7.06,72932.3,-10.83,-14.47,-14.33,0,*66
1509444123.29,12964,7.06,72936.5,-10.83,-14.47,-14.19,0,*69
1509444124.55,12965,7.06,72944.0,-10.87,-14.55,-14.37,0,*63
1509444125.79,12966,7.06,72930.0,-10.87,-14.29,-14.11,0,*6F
1509444127.07,12967,7.06,72944.5,-10.87,-14.23,-14.01,0,*65
1509444128.34,12968,7.06,72954.8,-10.87,-14.15,-13.87,0,*66
1509444129.58,12969,7.13,72954.0,-10.83,-14.23,-14.11,0,*6E
1509444130.84,12970,7.06,72946.0,-10.87,-14.97,-14.89,0,*6C
1509444132.09,12971,7.06,72918.8,-10.89,-14.51,-14.29,0,*63
1509444133.32,12972,7.06,72938.3,-10.89,-14.69,-14.55,0,*60
1509444134.56,12973,7.13,72932.0,-10.89,-14.89,-14.83,0,*64
1509444135.82,12974,7.06,72920.5,-10.89,-15.01,-14.97,0,*67
1509444137.09,12975,7.06,72916.3,-10.91,-14.79,-14.65,0,*6C
1509444138.34,12976,7.06,72918.5,-10.93,-15.01,-14.93,0,*6A
1509444139.61,12977,7.06,72920.5,-10.95,-15.49,-15.39,0,*60
1509444140.85,12978,7.13,72932.5,-10.93,-14.89,-14.79,0,*61
1509444142.09,12979,7.13,72922.3,-10.95,-14.37,-14.23,0,*6C
1509444143.37,12980,7.06,72908.3,-10.95,-14.47,-14.33,0,*6C
1509444144.61,12981,7.13,72898.0,-10.95,-14.37,-14.11,0,*6A
1509444145.84,12982,7.06,72904.5,-10.93,-14.33,-14.05,0,*6E
1509444147.12,12983,7.13,72900.3,-10.95,-14.23,-14.05,0,*68
1509444148.36,12984,7.06,72904.3,-10.93,-14.43,-14.15,0,*6E
1509444149.59,12985,7.13,72892.8,-10.95,-14.33,-14.11,0,*6A
1509444150.86,12986,7.06,72892.8,-10.95,-14.51,-14.23,0,*6C
1509444152.13,12987,7.13,72892.3,-10.95,-14.51,-14.29,0,*67
1509444153.4,12988,7.13,72908.3,-10.95,-14.65,-14.47,0,*67
1509444154.64,12989,7.13,72900.8,-10.95,-14.37,-14.11,0,*62
1509444155.89,12990,7.06,72882.5,-10.97,-14.11,-13.97,0,*65
1509444157.11,12991,7.06,72894.8,-10.97,-14.37,-14.15,0,*6D
1509444158.38,12992,7.06,72868.8,-10.95,-14.51,-14.19,0,*60
1509444159.65,12993,7.06,72808.5,-10.95,-14.19,-13.83,0,*69
1509444160.89,12994,7.06,72788.3,-10.99,-14.29,-14.15,0,*69
1509444162.13,12995,7.06,72844.5,-10.95,-15.07,-15.07,0,*6B
1509444163.37,12996,7.13,72858.5,-10.97,-14.43,-14.15,0,*69
1509444164.6,12997,7.06,72886.0,-10.97,-13.43,-13.37,0,*68
1509444165.88,12998,7.06,72882.0,-10.99,-14.23,-14.01,0,*6A
1509444167.15,12999,7.06,72892.5,-10.97,-14.01,-13.87,0,*6C
1509444168.4,13000,7.06,72898.8,-10.97,-14.15,-13.97,0,*60
1509444169.66,13001,7.06,72916.8,-10.97,-14.51,-14.43,0,*6F
1509444170.9,13002,7.06,72904.3,-10.97,-15.11,-15.01,0,*6E
1509444172.14,13003,7.06,72904.5,-10.97,-15.57,-15.53,0,*6A
1509444173.38,13004,7.06,72908.3,-10.99,-15.25,-15.11,0,*60
1509444174.63,13005,7.06,72898.5,-10.99,-15.53,-15.53,0,*66
1509444175.85,13006,7.06,72892.5,-11.01,-15.75,-15.75,0,*65
1509444177.1,13007,7.13,72906.3,-11.03,-15.29,-15.29,0,*66
1509444178.39,13008,7.06,72898.5,-11.03,-14.79,-14.75,0,*65
1509444179.63,13009,7.06,72922.8,-11.01,-14.61,-14.47,0,*6E
1509444180.9,13010,7.06,72922.5,-11.05,-14.47,-14.43,0,*62
1509444182.16,13011,7.06,72932.0,-11.09,-13.79,-13.65,0,*66
1509444183.38,13012,7.06,72926.5,-11.05,-14.15,-13.93,0,*6D
1509444184.62,13013,7.13,72936.5,-11.01,-13.87,-13.65,0,*6D
1509444185.83,13014,7.06,72946.3,-11.01,-13.51,-13.15,0,*66
1509444187.05,13015,7.06,72950.8,-11.01,-13.15,-12.89,0,*63
1509444188.31,13016,7.13,72938.8,-10.99,-13.73,-13.37,0,*64
1509444189.57,13017,7.13,72926.5,-10.99,-13.87,-13.65,0,*69
1509444190.78,13018,7.06,72924.8,-10.97,-13.69,-13.51,0,*6F
1509444192.05,13019,7.06,72924.8,-10.99,-13.55,-13.37,0,*6F
1509444193.26,13020,7.06,72934.5,-10.97,-13.55,-13.51,0,*6B
1509444194.48,13021,7.06,72932.8,-10.97,-13.73,-13.51,0,*6E
1509444195.74,13022,7.06,72932.5,-10.95,-13.79,-13.69,0,*6E
1509444197.0,13023,7.06,72934.0,-10.97,-13.29,-13.01,0,*66
1509444198.23,13024,7.06,72920.3,-10.93,-12.61,-12.43,0,*6F
1509444199.47,13025,7.13,72920.5,-10.93,-12.89,-12.71,0,*69
1509444200.77,13026,7.06,72942.8,-10.91,-12.57,-12.35,0,*6B
1509444202.01,13027,7.06,72932.5,-10.89,-13.29,-13.11,0,*6C
1509444203.28,13028,7.13,72936.8,-10.89,-13.83,-13.61,0,*64
1509444204.52,13029,7.06,72930.0,-10.91,-13.73,-13.47,0,*67
1509444205.75,13030,7.13,72946.5,-10.91,-13.65,-13.43,0,*6C
1509444207.02,13031,7.13,72942.5,-10.91,-13.55,-13.33,0,*69
1509444208.28,13032,7.06,72938.0,-10.89,-13.61,-13.37,0,*60
1509444209.55,13033,7.13,72930.8,-10.87,-13.87,-13.51,0,*67
1509444210.81,13034,7.06,72936.0,-10.87,-13.61,-13.43,0,*6B
1509444212.11,13035,7.13,72934.3,-10.87,-14.01,-13.87,0,*63
1509444213.38,13036,7.06,72924.0,-10.87,-13.97,-13.69,0,*68
1509444214.64,13037,7.06,72926.8,-10.87,-13.97,-13.69,0,*69
1509444215.85,13038,7.13,72934.8,-10.89,-14.29,-14.11,0,*62
1509444217.15,13039,7.06,72932.5,-10.91,-14.55,-14.47,0,*62
1509444218.39,13040,7.06,72930.0,-10.89,-14.15,-13.87,0,*6A
1509444219.63,13041,7.06,72932.8,-10.89,-13.87,-13.69,0,*67
1509444220.86,13042,7.06,72934.5,-10.91,-13.93,-13.93,0,*6D
1509444222.11,13043,7.06,72930.8,-10.91,-14.29,-14.15,0,*63
1509444223.37,13044,7.06,72926.3,-10.91,-14.55,-14.37,0,*6F
1509444224.61,13045,7.13,72922.8,-10.91,-14.33,-14.19,0,*62
1509444225.91,13046,7.06,72918.0,-10.91,-13.79,-13.61,0,*60
1509444227.17,13047,7.06,72920.3,-10.91,-13.33,-13.07,0,*6F
1509444228.41,13048,7.06,72924.5,-10.89,-13.43,-13.37,0,*6D
1509444229.62,13049,7.13,72932.3,-10.89,-13.55,-13.43,0,*68
1509444230.83,13050,7.06,72932.5,-10.89,-13.69,-13.43,0,*6F
1509444232.1,13051,7.06,72934.5,-10.89,-14.01,-13.97,0,*6E
1509444233.32,13052,7.06,72940.3,-10.89,-14.23,-14.11,0,*64
1509444234.54,13053,7.06,72940.8,-10.89,-14.15,-14.23,0,*61
1509444235.79,13054,7.06,72934.5,-10.87,-15.25,-15.49,0,*67
1509444237.07,13055,7.06,72926.0,-10.87,-16.51,-16.75,0,*6A
1509444238.28,13056,7.06,72930.8,-10.89,-16.89,-16.89,0,*61
1509444239.52,13057,7.06,72938.3,-10.91,-16.93,-16.79,0,*6D
1509444240.78,13058,7.06,72948.3,-10.93,-16.69,-16.51,0,*6F
1509444242.01,13059,7.06,72936.8,-10.93,-16.23,-15.95,0,*6B
1509444243.28,13060,7.06,72928.0,-10.93,-15.39,-14.93,0,*6E
1509444244.51,13061,7.06,72918.8,-10.93,-15.21,-14.89,0,*6D
1509444245.74,13062,7.06,72946.8,-10.93,-15.07,-14.79,0,*65
1509444246.99,13063,7.06,72952.0,-10.93,-15.43,-15.29,0,*60
1509444248.26,13064,7.06,72958.3,-10.93,-14.47,-14.05,0,*6D
1509444249.47,13065,7.06,72950.8,-10.93,-14.29,-13.93,0,*6C
1509444250.7,13066,7.06,72956.5,-10.93,-15.01,-14.89,0,*68
1509444251.96,13067,7.06,72962.3,-10.91,-15.49,-15.21,0,*64
1509444253.2,13068,7.06,72952.3,-10.93,-15.15,-14.47,0,*61
1509444254.42,13069,7.06,72938.3,-10.93,-14.15,-13.65,0,*66
1509444255.66,13070,7.06,72962.8,-10.91,-13.65,-13.07,0,*68
1509444256.87,13071,7.06,72972.5,-10.89,-13.73,-13.43,0,*67
1509444258.13,13072,7.06,72966.5,-10.91,-14.19,-13.79,0,*6F
1509444259.4,13073,7.06,72950.8,-10.89,-13.83,-13.37,0,*69
1509444260.67,13074,7.06,72946.3,-10.87,-12.83,-12.43,0,*63
1509444261.94,13075,7.06,72938.5,-10.83,-12.21,-11.81,0,*63
1509444263.18,13076,7.06,72934.5,-10.81,-12.25,-11.81,0,*66
1509444264.42,13077,7.06,72930.5,-10.81,-12.39,-11.93,0,*69
1509444265.69,13078,7.06,72934.5,-10.79,-12.43,-11.89,0,*67
1509444266.98,13079,7.13,72942.8,-10.79,-12.65,-12.07,0,*67
1509444268.23,13080,7.13,72950.3,-10.77,-12.61,-12.15,0,*68
1509444269.53,13081,7.06,72944.8,-10.75,-13.01,-12.61,0,*6F
1509444270.79,13082,7.06,72948.5,-10.73,-12.57,-12.15,0,*6B
1509444272.06,13083,7.06,72952.0,-10.71,-12.57,-12.21,0,*6F
1509444273.3,13084,7.13,72960.3,-10.73,-12.61,-12.25,0,*6B
1509444274.54,13085,7.13,72950.5,-10.71,-13.11,-12.93,0,*63
1509444275.78,13086,7.13,72954.0,-10.69,-13.07,-12.79,0,*6A
1509444277.04,13087,7.06,72948.3,-10.69,-12.83,-12.57,0,*6A
1509444278.34,13088,7.13,72952.8,-10.67,-12.75,-12.61,0,*67
1509444279.57,13089,7.06,72944.8,-10.69,-13.11,-12.65,0,*6F
1509444280.84,13090,7.06,72942.0,-10.67,-13.65,-13.37,0,*6C
1509444282.1,13091,7.13,72924.0,-10.67,-13.79,-13.65,0,*67
1509444283.39,13092,7.13,72920.5,-10.67,-14.01,-13.87,0,*60
1509444284.66,13093,7.13,72922.3,-10.67,-14.01,-13.73,0,*6A
1509444285.91,13094,7.13,72932.8,-10.69,-13.97,-13.65,0,*6C
1509444287.14,13095,7.06,72924.8,-10.69,-13.79,-13.65,0,*6D
1509444288.39,13096,7.13,72930.5,-10.67,-14.19,-14.19,0,*6D
1509444289.63,13097,7.06,72930.5,-10.69,-13.79,-13.55,0,*6C
1509444290.93,13098,7.13,72926.5,-10.67,-13.01,-12.75,0,*61
1509444292.16,13099,7.13,72924.8,-10.69,-13.93,-13.79,0,*68
1509444293.46,13100,7.06,72916.8,-10.67,-14.51,-14.47,0,*64
1509444294.72,13101,7.06,72936.0,-10.71,-14.79,-14.69,0,*64
1509444295.97,13102,7.13,72938.8,-10.71,-15.21,-15.11,0,*65
1509444297.22,13103,7.06,72934.5,-10.73,-14.61,-14.55,0,*62
1509444298.44,13104,7.06,72938.5,-10.73,-14.23,-14.15,0,*67
1509444299.73,13105,7.13,72944.3,-10.71,-14.05,-13.79,0,*6D
1509444300.97,13106,7.06,72944.5,-10.73,-13.65,-13.37,0,*67
1509444302.24,13107,7.06,72948.5,-10.71,-12.97,-12.71,0,*6B
1509444303.54,13108,7.06,72946.0,-10.71,-12.71,-12.35,0,*6C
1509444304.8,13109,7.13,72952.8,-10.67,-13.87,-13.51,0,*61
1509444306.04,13110,7.06,72954.8,-10.65,-13.65,-13.33,0,*63
1509444307.29,13111,7.06,72966.0,-10.67,-13.47,-13.19,0,*68
1509444308.58,13112,7.06,72966.8,-10.67,-13.61,-13.29,0,*6C
1509444309.8,13113,7.06,72958.3,-10.65,-12.93,-12.47,0,*6A
1509444311.09,13114,7.13,72942.5,-10.63,-12.35,-12.07,0,*63
1509444312.33,13115,7.06,72940.8,-10.63,-12.47,-12.21,0,*63
1509444313.6,13116,7.13,72936.5,-10.59,-12.57,-12.29,0,*60
1509444314.86,13117,7.06,72932.5,-10.59,-12.57,-12.43,0,*6D
1509444316.11,13118,7.06,72922.0,-10.57,-12.25,-11.97,0,*63
1509444317.38,13119,7.06,72916.0,-10.55,-12.65,-12.39,0,*63
1509444318.62,13120,7.06,72926.0,-10.55,-12.43,-12.25,0,*60
1509444319.89,13121,7.13,72934.5,-10.53,-12.75,-12.53,0,*63
1509444321.12,13122,7.06,72920.3,-10.53,-13.23,-13.19,0,*6D
1509444322.35,13123,7.06,72924.8,-10.51,-13.65,-13.47,0,*67
1509444323.59,13124,7.06,72900.0,-10.53,-13.87,-13.65,0,*6E
1509444324.83,13125,7.06,72906.8,-10.53,-13.79,-13.65,0,*6E
1509444326.1,13126,7.06,72904.3,-10.55,-13.83,-13.69,0,*62
1509444327.34,13127,7.06,72880.5,-10.53,-14.05,-13.93,0,*69
1509444328.6,13128,7.06,72860.0,-10.55,-13.55,-13.37,0,*6C
1509444329.85,13129,7.06,72882.0,-10.53,-12.65,-12.39,0,*66
1509444331.07,13130,7.06,72888.3,-10.53,-12.47,-12.21,0,*67
1509444332.31,13131,7.06,72902.8,-10.53,-12.61,-12.29,0,*6A
1509444333.55,13132,7.06,72906.0,-10.53,-12.61,-12.39,0,*68
1509444334.78,13133,7.06,72858.0,-10.49,-13.15,-13.01,0,*6A
1509444336.05,13134,7.06,72872.5,-10.51,-13.33,-13.19,0,*69
1509444337.3,13135,7.06,72880.3,-10.49,-13.29,-13.19,0,*6A
1509444338.53,13136,7.06,72898.8,-10.51,-13.15,-13.07,0,*60
1509444339.75,13137,7.06,72898.8,-10.49,-13.73,-13.73,0,*6B
1509444341.01,13138,7.13,72916.8,-10.49,-13.83,-13.83,0,*64
1509444342.26,13139,7.06,72924.3,-10.51,-14.19,-14.33,0,*64
1509444343.52,13140,7.06,72906.0,-10.51,-13.93,-13.79,0,*66
1509444344.76,13141,7.13,72904.3,-10.51,-13.51,-13.47,0,*64
1509444346.0,13142,7.13,72914.0,-10.49,-13.73,-13.61,0,*6A
1509444347.25,13143,7.06,72900.5,-10.51,-13.65,-13.79,0,*6C
1509444348.5,13144,7.13,72916.3,-10.51,-14.19,-14.23,0,*6F
1509444349.74,13145,7.06,72906.3,-10.49,-14.61,-14.83,0,*62
1509444351.0,13146,7.13,72902.3,-10.51,-15.01,-15.11,0,*65
1509444352.29,13147,7.06,72914.3,-10.51,-15.35,-15.35,0,*65
1509444353.55,13148,7.06,72920.8,-10.51,-15.11,-14.75,0,*69
1509444354.82,13149,7.06,72914.5,-10.51,-14.37,-13.87,0,*67
1509444356.08,13150,7.13,72910.8,-10.51,-13.23,-13.01,0,*63
1509444357.35,13151,7.06,72910.5,-10.49,-13.01,-12.83,0,*60
1509444358.59,13152,7.13,72906.8,-10.49,-13.19,-13.01,0,*61
1509444359.85,13153,7.13,72894.5,-10.47,-12.97,-12.61,0,*6E
1509444361.11,13154,7.13,72896.3,-10.47,-12.25,-11.89,0,*65
1509444362.38,13155,7.06,72898.0,-10.45,-12.11,-11.97,0,*6E
1509444363.65,13156,7.06,72912.5,-10.43,-12.07,-11.73,0,*66
1509444364.92,13157,7.06,72890.3,-10.37,-11.41,-11.29,0,*6A
1509444366.21,13158,7.13,72858.8,-10.37,-12.07,-11.81,0,*66
1509444367.48,13159,7.13,72884.3,-10.35,-11.63,-11.33,0,*6D
1509444368.74,13160,7.13,72914.5,-10.35,-11.73,-11.51,0,*62
1509444369.95,13161,7.13,72862.8,-10.31,-12.43,-12.25,0,*67
1509444371.16,13162,7.06,72786.8,-10.31,-13.65,-13.51,0,*63
1509444372.42,13163,7.06,72830.3,-10.33,-12.83,-12.89,0,*6D
1509444373.71,13164,7.06,72866.5,-10.33,-12.83,-12.75,0,*69
1509444374.95,13165,7.06,72910.0,-10.33,-12.89,-12.89,0,*61
1509444376.17,13166,7.13,72914.0,-10.31,-13.23,-13.55,0,*61
1509444377.43,13167,7.06,72922.5,-10.33,-13.29,-13.47,0,*6B
1509444378.69,13168,7.13,72930.3,-10.31,-13.29,-13.29,0,*6E
1509444379.93,13169,7.13,72930.3,-10.31,-13.29,-13.11,0,*64
1509444381.14,13170,7.13,72932.8,-10.31,-13.69,-13.55,0,*68
1509444382.38,13171,7.13,72940.3,-10.27,-13.87,-13.65,0,*6D
1509444383.59,13172,7.13,72932.0,-10.27,-14.37,-14.23,0,*67
1509444384.86,13173,7.13,72928.3,-10.29,-14.43,-14.23,0,*6B
1509444386.1,13174,7.13,72938.3,-10.29,-13.69,-13.43,0,*62
1509444387.34,13175,7.13,72938.0,-10.29,-13.65,-13.43,0,*6F
1509444388.58,13176,7.13,72944.5,-10.29,-13.11,-12.93,0,*63
1509444389.82,13177,7.13,72946.0,-10.27,-13.65,-13.33,0,*64
1509444391.06,13178,7.13,72942.3,-10.27,-12.97,-12.79,0,*68
1509444392.3,13179,7.13,72938.8,-10.27,-12.79,-12.39,0,*6D
1509444393.54,13180,7.13,72944.5,-10.27,-12.47,-12.11,0,*6C
1509444394.78,13181,7.13,72938.3,-10.23,-12.43,-12.11,0,*6D
1509444396.01,13182,7.13,72934.3,-10.23,-12.47,-12.15,0,*6E
1509444397.23,13183,7.13,72938.8,-10.23,-12.89,-12.29,0,*62
1509444398.47,13184,7.13,72946.5,-10.19,-12.39,-11.85,0,*62
1509444399.71,13185,7.13,72930.0,-10.19,-12.71,-12.39,0,*6B
1509444400.95,13186,7.13,72940.0,-10.19,-12.89,-12.57,0,*67
1509444402.21,13187,7.13,72928.0,-10.19,-12.15,-11.85,0,*6F
1509444403.45,13188,7.13,72934.3,-10.15,-12.29,-11.97,0,*60
1509444404.74,13189,7.13,72938.8,-10.13,-12.35,-12.07,0,*60
1509444406.01,13190,7.13,72946.8,-10.13,-12.21,-12.07,0,*6D
1509444407.22,13191,7.13,72934.3,-10.15,-13.69,-13.65,0,*62
1509444408.49,13192,7.13,72940.3,-10.13,-14.47,-14.33,0,*68
1509444409.71,13193,7.06,72928.3,-10.19,-14.11,-14.11,0,*60
1509444410.92,13194,7.13,72928.3,-10.19,-13.65,-13.55,0,*64
1509444412.16,13195,7.13,72934.5,-10.19,-13.37,-13.43,0,*65
1509444413.38,13196,7.06,72942.3,-10.19,-12.89,-12.97,0,*6A
1509444414.64,13197,7.13,72928.8,-10.19,-13.29,-13.29,0,*64
1509444415.88,13198,7.06,72924.5,-10.19,-13.83,-14.11,0,*67
1509444417.1,13199,7.06,72914.0,-10.15,-14.11,-14.29,0,*6D
1509444418.31,13200,7.06,72940.0,-10.15,-14.11,-14.29,0,*6E
1509444419.56,13201,7.13,72934.3,-10.15,-14.97,-14.97,0,*64
1509444420.79,13202,7.13,72932.3,-10.09,-15.49,-15.29,0,*6C
1509444422.03,13203,7.13,72930.0,-10.15,-15.29,-15.01,0,*6C
1509444423.3,13204,7.13,72934.5,-10.13,-14.19,-13.61,0,*6F
1509444424.56,13205,7.13,72926.5,-10.13,-14.05,-13.47,0,*67
1509444425.8,13206,7.13,72930.3,-10.13,-13.65,-12.97,0,*69
1509444427.05,13207,7.13,72926.8,-10.09,-13.47,-12.71,0,*6B
1509444428.32,13208,7.13,72926.3,-10.09,-13.61,-12.71,0,*60
1509444429.59,13209,7.13,72930.0,-10.05,-12.75,-12.07,0,*68
1509444430.88,13210,7.13,72920.5,-10.03,-12.57,-12.11,0,*61
1509444432.17,13211,7.13,72928.8,-10.03,-12.57,-11.85,0,*6E
1509444433.46,13212,7.06,72906.3,-9.99,-12.53,-11.67,0,*5E
1509444434.72,13213,7.06,72906.8,-9.99,-12.21,-11.77,0,*5B
1509444436.01,13214,7.13,72898.8,-9.99,-11.81,-11.63,0,*50
1509444437.26,13215,7.13,72900.0,-9.97,-11.81,-11.51,0,*5E
1509444438.54,13216,7.13,72876.8,-9.95,-11.59,-11.37,0,*5A
1509444439.79,13217,7.13,72866.3,-9.95,-12.43,-12.15,0,*50
1509444441.08,13218,7.13,72852.8,-9.91,-12.15,-11.89,0,*5E
1509444442.33,13219,7.06,72858.8,-9.91,-12.03,-11.77,0,*59
1509444443.62,13220,7.13,72860.0,-9.91,-11.85,-11.67,0,*5F
1509444444.9,13221,7.13,72864.3,-9.91,-12.11,-11.85,0,*5C
1509444446.12,13222,7.06,72850.8,-9.89,-12.29,-12.03,0,*50
1509444447.39,13223,7.13,72830.0,-9.91,-12.61,-12.57,0,*55
1509444448.63,13224,7.13,72862.5,-9.89,-12.57,-12.43,0,*5B
1509444449.89,13225,7.13,72894.5,-9.91,-12.97,-12.75,0,*5A
1509444451.17,13226,7.13,72908.5,-9.91,-12.71,-12.57,0,*51
1509444452.4,13227,7.06,72904.3,-9.91,-12.39,-12.25,0,*59
1509444453.61,13228,7.13,72904.8,-9.89,-12.43,-12.39,0,*5F
1509444454.87,13229,7.13,72912.5,-9.89,-12.71,-12.53,0,*53
1509444456.15,13230,7.13,72904.3,-9.91,-12.83,-12.75,0,*5B
1509444457.42,13231,7.13,72900.5,-9.89,-13.01,-12.71,0,*5C
1509444458.7,13232,7.13,72890.5,-9.91,-12.71,-12.57,0,*54
1509444459.96,13233,7.13,72890.0,-9.91,-13.55,-13.37,0,*55
1509444461.22,13234,7.13,72904.3,-9.91,-13.83,-13.73,0,*59
1509444462.51,13235,7.13,72906.5,-9.95,-14.01,-14.05,0,*57
1509444463.72,13236,7.13,72908.3,-9.97,-14.29,-14.33,0,*59
1509444464.92,13237,7.13,72908.5,-9.97,-14.65,-14.61,0,*57
1509444466.19,13238,7.13,72906.8,-10.01,-14.79,-14.93,0,*6F
1509444467.4,13239,7.13,72908.0,-10.01,-14.33,-14.19,0,*62
1509444468.62,13240,7.13,72910.8,-10.05,-13.73,-13.55,0,*64
1509444469.88,13241,7.13,72918.5,-10.03,-13.37,-13.23,0,*62
1509444471.09,13242,7.13,72922.8,-10.05,-13.55,-13.43,0,*65
1509444472.3,13243,7.13,72924.3,-10.05,-13.73,-13.73,0,*63
1509444473.55,13244,7.13,72920.8,-10.03,-13.51,-13.51,0,*62
1509444474.77,13245,7.13,72918.0,-10.05,-13.43,-13.19,0,*6A
1509444476.01,13246,7.13,72920.0,-10.03,-13.65,-13.55,0,*63
1509444477.25,13247,7.13,72930.5,-10.03,-14.11,-14.23,0,*60
1509444478.46,13248,7.13,72932.3,-10.05,-14.33,-14.33,0,*68
1509444479.77,13249,7.13,72932.3,-10.07,-14.47,-14.47,0,*6B
1509444480.99,13250,7.13,72922.8,-10.09,-14.33,-14.29,0,*66
1509444482.23,13251,7.13,72934.5,-10.09,-14.61,-14.55,0,*6B
1509444483.48,13252,7.13,72934.3,-10.09,-14.75,-14.89,0,*6C
1509444484.71,13253,7.13,72930.8,-10.13,-14.65,-14.61,0,*61
1509444486.01,13254,7.13,72930.8,-10.13,-14.47,-14.47,0,*62
1509444487.24,13255,7.13,72916.0,-10.15,-14.65,-14.51,0,*62
1509444488.48,13256,7.13,72912.0,-10.15,-14.65,-14.51,0,*61
1509444489.68,13257,7.13,72914.5,-10.15,-14.65,-14.37,0,*60
1509444490.94,13258,7.13,72928.3,-10.13,-14.79,-14.69,0,*6F
1509444492.17,13259,7.13,72938.8,-10.15,-14.89,-15.01,0,*68
1509444493.41,13260,7.13,72940.5,-10.15,-14.97,-14.89,0,*6C
1509444494.64,13261,7.13,72918.3,-10.15,-14.83,-14.69,0,*66
1509444495.91,13262,7.13,72918.8,-10.13,-14.61,-14.47,0,*63
1509444497.12,13263,7.13,72948.5,-10.15,-13.55,-13.55,0,*60
1509444498.33,13264,7.13,72932.8,-10.15,-15.15,-15.11,0,*63
1509444499.59,13265,7.13,72942.5,-10.15,-15.39,-14.97,0,*63
1509444500.83,13266,7.13,72942.0,-10.13,-15.53,-14.69,0,*6B